This demonstration page uses our WeatherBlox Daily Observations layout. Learn more.

Left ArrowRight Arrow

Hourly Observations for June 29, 2019

Temp ( °F °C ) Dew Point ( °F °C ) Humidity (%) Winds ( mph kmh ) Pressure ( in mb ) Visibility ( mi km ) Precip ( " mm )
12:53 am 00:53 Clear 72 22.2 71 21.7 97 97 N N/A 30.14 1021 9 14 N/A
1:53 am 01:53 Clear 74 23.3 71 21.7 91 91 N N/A 30.14 1021 10 16 N/A
2:53 am 02:53 Clear 71 21.7 70 21.1 96 96 N N/A 30.14 1021 10 16 N/A
3:53 am 03:53 Clear 69 20.6 68 20 96 96 N N/A 30.13 1020 8 13 N/A
4:53 am 04:53 Clear 69 20.6 68 20 96 96 N N/A 30.13 1020 9 14 N/A
5:53 am 05:53 Clear with Mist and Fog 69 20.6 68 20 96 96 N N/A 30.14 1021 5 8 N/A
6:17 am 06:17 Sunny with Mist and Fog 69 20.6 68 20 96 96 N N/A 30.14 1021 2 3 N/A
6:27 am 06:27 Sunny 68 20 67 19.4 96 96 N N/A 30.15 1021 8 13 N/A
6:40 am 06:40 Mostly Sunny 69 20.6 68 20 96 96 N N/A 30.15 1021 7 11 N/A
6:53 am 06:53 Sunny with Mist and Fog 70 21.1 69 20.6 97 97 N N/A 30.15 1021 5 8 N/A
7:53 am 07:53 Sunny 75 23.9 71 21.7 88 88 N N/A 30.16 1021 10 16 N/A
8:53 am 08:53 Sunny 78 25.6 71 21.7 79 79 N N/A 30.17 1022 10 16 N/A
9:53 am 09:53 Sunny 81 27.2 70 21.1 69 69 WSW 3 6 30.17 1022 10 16 N/A
10:53 am 10:53 Sunny 84 28.9 71 21.7 65 65 W 3 6 30.16 1021 10 16 N/A
11:53 am 11:53 Sunny 86 30 72 22.2 63 63 VRB 5 7 30.15 1021 10 16 N/A
12:53 pm 12:53 Partly Cloudy 88 31.1 72 22.2 59 59 VRB 6 9 30.13 1020 10 16 N/A
1:53 pm 13:53 Sunny 89 31.7 71 21.7 55 55 VRB 6 9 30.11 1020 10 16 N/A
2:53 pm 14:53 Partly Cloudy 89 31.7 70 21.1 53 53 W 6 9 30.09 1019 10 16 N/A
3:53 pm 15:53 Mostly Sunny 88 31.1 69 20.6 54 54 VRB 7 11 30.07 1018 10 16 N/A
4:53 pm 16:53 Mostly Sunny 90 32.2 69 20.6 50 50 WSW 7 11 30.06 1018 10 16 N/A
5:53 pm 17:53 Sunny 89 31.7 69 20.6 52 52 WSW 9 15 30.04 1017 10 16 N/A
6:53 pm 18:53 Sunny 88 31.1 69 20.6 54 54 WSW 9 15 30.03 1017 10 16 N/A
7:53 pm 19:53 Mostly Sunny 86 30 69 20.6 57 57 WSW 5 7 30.03 1017 10 16 N/A
8:53 pm 20:53 Sunny 80 26.7 73 22.8 79 79 N N/A 30.04 1017 10 16 N/A
9:53 pm 21:53 Clear 78 25.6 72 22.2 82 82 N N/A 30.04 1017 10 16 N/A
10:53 pm 22:53 Mostly Clear 79 26.1 71 21.7 77 77 WSW 5 7 30.05 1018 10 16 N/A
11:53 pm 23:53 Clear 78 25.6 70 21.1 76 76 WSW 5 7 30.04 1017 10 16 N/A

Powered by AerisWeather